Location: Luz Observatory
(34.5000°N, 117.2833°W)
Time: 04:57:08
(UTC-07:00)

Daily predictions for brighter satellites

Satellite Brightness Start Highest point End
(mag) Time Altitude Azimuth Time Altitude Azimuth Time Altitude Azimuth
Cosmos 2344 4.4 03:07:13 46° NE 03:07:13 46° NE 03:12:46 10° NNE
Cosmos 2237 Rocket 3.5 03:41:58 10° N 03:48:08 36° E 03:52:24 10° SE
ATLAS 5 CENTAUR R/B 3.6 03:45:47 27° N 03:48:25 39° NE 03:54:26 10° ESE
NOSS 3-4 (A) 4.2 03:52:51 46° NNE 03:52:51 46° NNE 03:57:20 10° NNE
NOSS 3-4 (C) 4.2 03:52:56 47° NNE 03:52:56 47° NNE 03:57:27 10° NNE
Okean O Rocket 3.8 03:57:52 10° NNE 03:59:42 23° NE 03:59:42 23° NE
SL-16 R/B 4.3 04:02:53 10° N 04:07:30 25° ENE 04:12:05 10° ESE
CZ-2D R/B 4.2 04:07:56 10° N 04:09:00 16° N 04:09:00 16° N
Cosmos 2227 Rocket 3.0 04:17:32 41° N 04:17:32 41° N 04:21:18 10° NNE
GOES 2 Rocket 4.3 04:24:19 47° SSE 04:24:19 47° SSE 04:30:35 10° ESE
Cosmos 2297 Rocket 2.3 04:25:41 62° N 04:25:41 62° N 04:30:29 10° NNE
Gbstr 26 Del rocket 4.3 04:26:03 63° W 04:27:10 71° SW 04:35:15 10° SE
CZ-2C R/B 4.1 04:29:57 59° NE 04:29:57 59° NE 04:33:59 10° N
IRS-1C Rocket 4.0 04:26:38 10° N 04:31:31 75° NNW 04:31:31 75° NNW
Resurs 1-4 Rocket 4.2 04:30:26 10° NNW 04:31:19 14° NNW 04:31:19 14° NNW
NOSS 3-2 (A) 3.9 04:35:29 10° NW 04:43:06 66° WSW 04:51:09 10° SSE
OTV 4 3.4 04:46:54 12° ESE 04:46:54 12° ESE 04:47:10 10° ESE
Lacrosse 5 3.2 04:45:28 26° NNW 04:45:28 26° NNW 04:48:58 10° NNE
Cosmos 292 Rocket 4.3 04:40:05 10° N 04:44:54 60° ENE 04:49:40 10° SSE
CZ-4B DEB 4.1 04:43:28 10° N 04:48:58 80° WNW 04:51:03 40° SSW
DELTA 2 R/B (1) 3.6 04:54:22 51° WNW 04:55:36 67° NNW 05:01:10 10° ENE
Cosmos 1898 Rocket 3.4 04:55:17 39° SSW 04:57:20 81° WNW 05:02:40 10° NNE
Cosmos 1727 Rocket 4.5 04:57:52 38° WNW 04:57:52 38° WNW 05:03:32 10° N
Delta 142 4.3 04:58:17 38° SSW 04:58:27 39° S 05:02:26 10° ESE
USA 215 3.5 04:52:26 10° SSE 04:58:35 43° SW 04:59:58 38° W
PAYLOAD B 4.3 04:57:39 10° N 05:02:58 51° WNW 05:04:28 40° WSW
Cosmos 2058 Rocket 3.0 05:01:29 10° N 05:05:51 86° E 05:10:12 10° S
Cosmos 2173 Rocket 3.9 05:00:38 10° N 05:06:45 87° W 05:12:54 10° S
Cosmos 858 Rocket 4.4 05:04:08 29° SSW 05:06:49 74° WNW 05:12:07 10° NNE
Okean-O 2.7 05:02:58 10° NNE 05:07:25 76° ESE 05:11:50 10° S
Meteor 1-15 Rocket 4.2 05:02:16 10° N 05:07:52 88° E 05:13:30 10° S
CZ-4B R/B 3.6 05:04:38 10° N 05:08:37 41° WNW 05:08:37 41° WNW
Cosmos 2333 Rocket 3.8 05:12:41 16° SSW 05:12:41 16° SSW 05:14:03 10° SSW
Cosmos 1937 Rocket 3.4 05:05:39 18° SSW 05:09:37 88° WNW 05:14:55 10° NNE
FALCON 9 R/B 3.6 05:06:13 27° SW 05:10:08 64° SSE 05:32:29 10° ENE
OAO 2 Rocket 3.7 05:09:22 35° SW 05:11:26 60° SSE 05:16:41 10° E
Cosmos 1459 Rocket 3.9 05:07:24 10° N 05:13:45 75° W 05:20:01 10° S
ADEOS Rocket 3.2 05:06:57 10° N 05:13:54 66° WNW 05:20:07 10° SSW
Cosmos 2123 Rocket 4.3 05:09:28 10° S 05:15:34 66° E 05:21:41 10° NNE
NOSS 2-2 (D) 3.5 05:13:40 27° SSW 05:15:51 78° ESE 05:20:17 10° NNE
CENTAUR R/B 3.8 05:08:22 10° NNW 05:16:09 56° NE 05:24:18 10° SE
Cosmos 1666 2.8 05:12:38 10° NNW 05:21:23 - S 05:16:20 47° W
USA 116 4.5 05:11:50 10° SSE 05:16:59 74° ENE 05:21:43 10° N
Okean 2 3.9 05:19:07 37° WNW 05:19:07 37° WNW 05:22:55 10° NNW
NOSS 3-2 (C) 4.3 05:14:24 10° NW 05:21:42 46° WSW 05:29:21 10° S
ASTRO F (AKARI) 4.1 05:21:22 10° S 05:24:28 60° WSW 05:27:39 10° NNW
Feng Yun 1-1 Rocket 4.2 05:19:24 10° NNE 05:25:07 82° WNW 05:30:56 10° SSW
BREEZE-M DEB (TANK) 4.4 05:25:58 10° NNW 05:28:05 20° NE 05:30:56 10° E
CZ-4B R/B 3.9 05:24:00 10° N 05:28:43 31° WNW 05:31:01 23° WSW
Meteor 2-15 4.3 05:23:24 10° SSW 05:29:24 68° W 05:35:27 10° N
ADEOS II 2.1 05:25:03 10° N 05:30:13 60° WNW 05:35:23 10° SSW
Cosmos 2237 Rocket 3.1 05:30:28 24° W 05:30:58 24° W 05:35:21 10° SSW
NOSS 2-2 (C) 3.4 05:28:38 22° SW 05:31:12 69° WNW 05:35:42 10° NNE
Cosmos 1626 Rocket 3.4 05:27:47 10° S 05:32:09 83° W 05:36:32 10° N
NOSS 2-2 (E) 3.5 05:30:25 23° SW 05:32:47 59° NW 05:37:21 10° NNE
ATLAS 5 CENTAUR R/B 3.0 05:27:33 10° NW 05:33:06 35° WSW 05:38:56 10° S
Cosmos 2227 4.2 05:28:20 10° SSW 05:34:04 82° WNW 05:39:52 10° NNE
Okean O Rocket 3.5 05:35:46 10° NW 05:37:10 13° NW 05:37:10 13° NW
Meteor PRIRODA 3.9 05:36:19 10° N 05:39:53 45° WNW 05:43:25 10° SSW
Delta 2 Rocket 3.0 05:44:30 20° W 05:47:00 70° SSW 05:50:29 10° ESE
SL-16 R/B 2.6 05:46:26 10° NW 05:51:42 40° WSW 05:56:54 10° S
NOSS 5 (C) 4.4 05:49:17 10° SSW 05:53:04 89° ESE 05:56:14 10° NNE
Radarsat Rocket 4.2 05:46:33 10° NNE 05:53:09 80° ESE 05:59:06 10° SSW
SL-24 R/B 3.9 05:50:50 10° NNE 05:55:01 81° ESE 05:58:46 10° S
BREEZE-M DEB (TANK) 3.8 05:45:20 10° NW 05:55:39 55° NNE 05:58:57 10° ESE
Cosmos 1602 Rocket 3.9 05:51:38 10° SSW 05:55:51 42° W 06:00:04 10° N
Cosmos 1066 Rocket 4.3 05:52:31 10° S 05:58:06 89° W 06:03:53 10° N
Aureole 2 Rocket 3.0 05:55:35 10° NW 05:58:28 28° W 06:01:08 10° SSW
Tiangong 1 3.3 05:58:21 10° NW 06:00:29 18° N 06:02:39 10° NE
EXPRESS MD2 4.5 05:57:43 10° NW 06:01:29 65° NE 06:09:20 10° ESE
SKYMED 2 4.0 05:58:48 10° SSE 06:03:05 67° ENE 06:07:25 10° N
Cosmos 2233 Rocket 4.1 06:02:33 10° N 06:08:51 86° E 06:15:03 10° S
MOS 1 Rocket 4.2 06:12:03 10° N 06:16:23 33° WNW 06:20:55 10° SW
Cosmos 2228 4.4 06:14:21 10° NW 06:17:22 18° W 06:20:22 10° SW
Ariane Rocket 3.0 06:13:36 10° N 06:18:42 74° WNW 06:23:46 10° SSW
CSL-04 Rocket 3.7 06:16:40 10° NNE 06:21:58 86° ESE 06:27:17 10° SSW
